YAMAL 401

Last updated on Tue Oct 15 2024 00:02:40 GMT+0000 (Coordinated Universal Time)

1 40345U 14082A 24288.06801535 -.00000231 00000+0 00000+0 0 9998 2 40345 0.0104 210.9447 0000199 111.9791 174.6477 1.00273500 35796
UTC large
Height (km)
Speed (km/s)
/
Latitude / Longitude
Inclination (degrees)
Orbital Period (minutes)
Azimuth
Elevation
Range (km)
Doppler Factor

Next 0 passes for location: London (51.5072 / 0.1276)

Sorry there are no passes over London.